Time,TemperatureF,DewpointF,PressureIn,WindDirection,WindDirectionDegrees,WindSpeedMPH,WindSpeedGustMPH,Humidity,HourlyPrecipIn,Conditions,Clouds,dailyrainin,SoftwareType,DateUTC
2015-06-03 00:06:00,51.2,47.0,30.30,SSW,203,0.0,4.0,84,0.00,,,0.00,weatherlink.com 1.10,2015-06-03 04:06:00,
2015-06-03 00:21:00,51.0,46.0,30.30,SSE,157,0.0,6.0,84,0.00,,,0.00,weatherlink.com 1.10,2015-06-03 04:21:00,
2015-06-03 00:36:00,51.0,47.0,30.30,South,181,0.0,4.0,85,0.00,,,0.00,weatherlink.com 1.10,2015-06-03 04:36:00,
2015-06-03 00:51:00,50.6,46.0,30.30,SE,130,0.0,8.0,84,0.00,,,0.00,weatherlink.com 1.10,2015-06-03 04:51:00,
2015-06-03 01:06:00,50.4,46.0,30.30,SW,219,1.0,2.0,85,0.00,,,0.00,weatherlink.com 1.10,2015-06-03 05:06:00,
2015-06-03 01:22:00,50.1,46.0,30.30,WSW,241,1.0,8.0,84,0.00,,,0.00,weatherlink.com 1.10,2015-06-03 05:22:00,
2015-06-03 01:37:00,50.1,46.0,30.30,SW,229,1.0,6.0,84,0.00,,,0.00,weatherlink.com 1.10,2015-06-03 05:37:00,
2015-06-03 01:53:00,50.1,46.0,30.31,SW,225,2.0,4.0,85,0.00,,,0.00,weatherlink.com 1.10,2015-06-03 05:53:00,
2015-06-03 02:07:00,49.9,46.0,30.31,SSW,200,3.0,5.0,85,0.00,,,0.00,weatherlink.com 1.10,2015-06-03 06:07:00,
2015-06-03 02:21:00,49.6,46.0,30.31,SSW,203,1.0,6.0,86,0.00,,,0.00,weatherlink.com 1.10,2015-06-03 06:21:00,
2015-06-03 02:36:00,49.1,45.0,30.30,WSW,241,2.0,9.0,86,0.00,,,0.00,weatherlink.com 1.10,2015-06-03 06:36:00,
2015-06-03 02:52:00,48.7,45.0,30.31,WSW,248,1.0,8.0,86,0.00,,,0.00,weatherlink.com 1.10,2015-06-03 06:52:00,
2015-06-03 03:07:00,48.3,45.0,30.32,SW,233,2.0,7.0,87,0.00,,,0.00,weatherlink.com 1.10,2015-06-03 07:07:00,
2015-06-03 03:22:00,47.9,45.0,30.33,SW,225,0.0,6.0,88,0.00,,,0.00,weatherlink.com 1.10,2015-06-03 07:22:00,
2015-06-03 03:37:00,47.6,44.0,30.33,SW,225,1.0,4.0,88,0.00,,,0.00,weatherlink.com 1.10,2015-06-03 07:37:00,
2015-06-03 03:52:00,47.3,44.0,30.33,SW,232,0.0,4.0,89,0.00,,,0.00,weatherlink.com 1.10,2015-06-03 07:52:00,
2015-06-03 04:07:00,47.0,44.0,30.34,SW,229,0.0,6.0,89,0.00,,,0.00,weatherlink.com 1.10,2015-06-03 08:07:00,
2015-06-03 04:22:00,46.4,43.0,30.34,SW,221,0.0,2.0,89,0.00,,,0.00,weatherlink.com 1.10,2015-06-03 08:22:00,
2015-06-03 04:37:00,46.4,44.0,30.34,SSW,206,2.0,5.0,90,0.00,,,0.00,weatherlink.com 1.10,2015-06-03 08:37:00,
2015-06-03 04:52:00,46.3,44.0,30.34,SW,235,1.0,5.0,90,0.00,,,0.00,weatherlink.com 1.10,2015-06-03 08:52:00,
2015-06-03 05:07:00,46.2,44.0,30.34,SW,235,1.0,4.0,90,0.00,,,0.00,weatherlink.com 1.10,2015-06-03 09:07:00,
2015-06-03 05:22:00,46.1,43.0,30.34,SW,219,2.0,3.0,90,0.00,,,0.00,weatherlink.com 1.10,2015-06-03 09:22:00,
2015-06-03 05:37:00,46.1,43.0,30.34,SW,229,0.0,6.0,90,0.00,,,0.00,weatherlink.com 1.10,2015-06-03 09:37:00,
2015-06-03 05:52:00,46.0,43.0,30.34,SSW,213,1.0,9.0,90,0.00,,,0.00,weatherlink.com 1.10,2015-06-03 09:52:00,
2015-06-03 06:07:00,45.9,43.0,30.35,SW,233,0.0,4.0,90,0.00,,,0.00,weatherlink.com 1.10,2015-06-03 10:07:00,
2015-06-03 06:22:00,46.0,43.0,30.35,SW,225,0.0,4.0,90,0.00,,,0.00,weatherlink.com 1.10,2015-06-03 10:22:00,
2015-06-03 06:37:00,46.1,43.0,30.35,SW,233,1.0,6.0,90,0.00,,,0.00,weatherlink.com 1.10,2015-06-03 10:37:00,
2015-06-03 06:52:00,46.6,44.0,30.36,SW,223,5.0,7.0,89,0.00,,,0.00,weatherlink.com 1.10,2015-06-03 10:52:00,
2015-06-03 07:07:00,47.3,44.0,30.36,SW,216,2.0,6.0,87,0.00,,,0.00,weatherlink.com 1.10,2015-06-03 11:07:00,
2015-06-03 07:22:00,47.7,44.0,30.37,West,263,2.0,7.0,86,0.00,,,0.00,weatherlink.com 1.10,2015-06-03 11:22:00,
2015-06-03 07:37:00,47.9,44.0,30.37,SW,217,0.0,6.0,85,0.00,,,0.00,weatherlink.com 1.10,2015-06-03 11:37:00,
2015-06-03 07:52:00,48.7,44.0,30.37,SW,228,2.0,12.0,84,0.00,,,0.00,weatherlink.com 1.10,2015-06-03 11:52:00,
2015-06-03 08:07:00,49.3,44.0,30.38,WSW,247,2.0,5.0,83,0.00,,,0.00,weatherlink.com 1.10,2015-06-03 12:07:00,
2015-06-03 08:22:00,50.3,45.0,30.38,WSW,243,4.0,8.0,81,0.00,,,0.00,weatherlink.com 1.10,2015-06-03 12:22:00,
2015-06-03 08:37:00,51.0,45.0,30.38,SW,225,2.0,8.0,81,0.00,,,0.00,weatherlink.com 1.10,2015-06-03 12:37:00,
2015-06-03 08:52:00,51.5,45.0,30.38,WSW,248,2.0,8.0,78,0.00,,,0.00,weatherlink.com 1.10,2015-06-03 12:52:00,
2015-06-03 09:07:00,52.1,45.0,30.37,West,264,1.0,8.0,77,0.00,,,0.00,weatherlink.com 1.10,2015-06-03 13:07:00,
2015-06-03 09:22:00,52.4,46.0,30.37,West,265,1.0,6.0,78,0.00,,,0.00,weatherlink.com 1.10,2015-06-03 13:22:00,
2015-06-03 09:37:00,52.9,46.0,30.37,West,275,0.0,6.0,77,0.00,,,0.00,weatherlink.com 1.10,2015-06-03 13:37:00,
2015-06-03 09:52:00,53.7,46.0,30.37,SW,228,6.0,7.0,74,0.00,,,0.00,weatherlink.com 1.10,2015-06-03 13:52:00,
2015-06-03 10:08:00,53.9,45.0,30.37,SW,214,5.0,8.0,73,0.00,,,0.00,weatherlink.com 1.10,2015-06-03 14:08:00,
2015-06-03 10:23:00,54.6,46.0,30.37,SSW,204,2.0,9.0,72,0.00,,,0.00,weatherlink.com 1.10,2015-06-03 14:23:00,
2015-06-03 10:38:00,55.1,46.0,30.37,West,263,0.0,9.0,71,0.00,,,0.00,weatherlink.com 1.10,2015-06-03 14:38:00,
2015-06-03 10:53:00,55.4,45.0,30.37,SSW,196,1.0,11.0,67,0.00,,,0.00,weatherlink.com 1.10,2015-06-03 14:53:00,
2015-06-03 11:08:00,56.4,45.0,30.37,SW,223,5.0,8.0,67,0.00,,,0.00,weatherlink.com 1.10,2015-06-03 15:08:00,
2015-06-03 11:23:00,57.1,47.0,30.36,West,270,1.0,7.0,68,0.00,,,0.00,weatherlink.com 1.10,2015-06-03 15:23:00,
2015-06-03 11:38:00,57.3,46.0,30.36,NW,308,4.0,6.0,66,0.00,,,0.00,weatherlink.com 1.10,2015-06-03 15:38:00,
2015-06-03 11:53:00,58.0,46.0,30.36,WSW,238,1.0,10.0,64,0.00,,,0.00,weatherlink.com 1.10,2015-06-03 15:53:00,
2015-06-03 12:08:00,58.3,46.0,30.35,WSW,239,3.0,7.0,64,0.00,,,0.00,weatherlink.com 1.10,2015-06-03 16:08:00,
2015-06-03 12:23:00,59.4,48.0,30.35,WNW,303,5.0,6.0,65,0.00,,,0.00,weatherlink.com 1.10,2015-06-03 16:23:00,
2015-06-03 12:38:00,60.0,48.0,30.35,WNW,297,2.0,6.0,64,0.00,,,0.00,weatherlink.com 1.10,2015-06-03 16:38:00,
2015-06-03 12:53:00,60.9,49.0,30.35,WSW,245,1.0,6.0,66,0.00,,,0.00,weatherlink.com 1.10,2015-06-03 16:53:00,
2015-06-03 13:08:00,61.6,47.0,30.34,WNW,302,2.0,8.0,59,0.00,,,0.00,weatherlink.com 1.10,2015-06-03 17:08:00,
2015-06-03 13:23:00,61.5,48.0,30.33,SW,234,1.0,11.0,62,0.00,,,0.00,weatherlink.com 1.10,2015-06-03 17:23:00,
2015-06-03 13:38:00,62.3,49.0,30.33,SW,229,2.0,5.0,62,0.00,,,0.00,weatherlink.com 1.10,2015-06-03 17:38:00,
2015-06-03 13:53:00,63.0,51.0,30.32,NW,311,2.0,7.0,64,0.00,,,0.00,weatherlink.com 1.10,2015-06-03 17:53:00,
2015-06-03 14:08:00,63.3,49.0,30.32,WSW,250,1.0,9.0,59,0.00,,,0.00,weatherlink.com 1.10,2015-06-03 18:08:00,
2015-06-03 14:23:00,63.7,49.0,30.32,SW,223,5.0,7.0,60,0.00,,,0.00,weatherlink.com 1.10,2015-06-03 18:23:00,
2015-06-03 14:38:00,64.1,49.0,30.32,WSW,255,1.0,9.0,58,0.00,,,0.00,weatherlink.com 1.10,2015-06-03 18:38:00,
2015-06-03 14:53:00,64.5,48.0,30.32,WSW,248,2.0,7.0,56,0.00,,,0.00,weatherlink.com 1.10,2015-06-03 18:53:00,
2015-06-03 15:09:00,64.5,50.0,30.32,WNW,290,1.0,9.0,59,0.00,,,0.00,weatherlink.com 1.10,2015-06-03 19:09:00,
2015-06-03 15:23:00,65.0,51.0,30.31,WSW,241,0.0,6.0,60,0.00,,,0.00,weatherlink.com 1.10,2015-06-03 19:23:00,
2015-06-03 15:38:00,64.7,49.0,30.31,WNW,296,1.0,5.0,58,0.00,,,0.00,weatherlink.com 1.10,2015-06-03 19:38:00,
2015-06-03 15:53:00,64.3,49.0,30.30,SW,215,4.0,8.0,57,0.00,,,0.00,weatherlink.com 1.10,2015-06-03 19:53:00,
2015-06-03 16:08:00,64.1,48.0,30.30,West,268,1.0,7.0,57,0.00,,,0.00,weatherlink.com 1.10,2015-06-03 20:08:00,
2015-06-03 16:23:00,64.0,49.0,30.29,WSW,250,2.0,7.0,59,0.00,,,0.00,weatherlink.com 1.10,2015-06-03 20:23:00,
2015-06-03 16:38:00,63.5,48.0,30.29,SW,215,5.0,6.0,58,0.00,,,0.00,weatherlink.com 1.10,2015-06-03 20:38:00,
2015-06-03 16:53:00,63.4,50.0,30.29,SW,224,0.0,6.0,61,0.00,,,0.00,weatherlink.com 1.10,2015-06-03 20:53:00,